Sigfox identifier Datetime Temperature Humidity SNR
002F5DB1 2019-04-23 14:41:31 21.6 28 16.7
002F5DB1 2019-04-23 14:07:43 21.6 28 16.5
002F5DB1 2019-04-23 13:33:49 21.6 28 16.1
002F5DB1 2019-04-23 12:59:57 21.5 28 16
002F5DB1 2019-04-23 12:26:06 21.4 28 15.9
002F5DB1 2019-04-23 11:52:15 21.4 28 15.9
002F5DB1 2019-04-23 11:18:26 21.4 28 15.9
002F5DB1 2019-04-23 10:44:34 21.4 28 16.2
002F5DB1 2019-04-23 10:10:43 21.2 28 15.9
002F5DB1 2019-04-23 09:36:54 21.2 27 16.2
002F5DB1 2019-04-23 09:03:05 21.2 27 15.8
002F5DB1 2019-04-23 08:29:15 21.2 27 16
002F5DB1 2019-04-23 07:55:26 21.1 27 16.3
002F5DB1 2019-04-23 07:21:38 21.2 27 16.6
002F5DB1 2019-04-23 06:47:47 21.2 27 17.4
002F5DB1 2019-04-23 06:13:57 21.2 27 17.3
002F5DB1 2019-04-23 05:40:08 21.2 27 17.3
002F5DB1 2019-04-23 05:06:16 21.1 27 17.6
002F5DB1 2019-04-23 04:32:25 21.2 27 18
002F5DB1 2019-04-23 03:58:33 21.2 27 18.1
002F5DB1 2019-04-23 03:24:41 21.2 27 18.5
002F5DB1 2019-04-23 02:50:50 21.2 27 18.1
002F5DB1 2019-04-23 02:16:59 21.2 27 18.4
002F5DB1 2019-04-23 01:43:08 21.2 27 18.4
002F5DB1 2019-04-23 01:09:20 21.2 27 18.6
002F5DB1 2019-04-23 00:35:32 21.2 27 18.6
002F5DB1 2019-04-23 00:01:43 21.2 27 18.6
002F5DB1 2019-04-22 23:27:54 21.2 27 18.6
002F5DB1 2019-04-22 22:54:05 21.2 27 18.5
002F5DB1 2019-04-22 22:20:17 21.1 27 20.4
002F5DB1 2019-04-22 21:46:25 21.2 27 20.5
002F5DB1 2019-04-22 21:12:35 21.2 27 20.5
002F5DB1 2019-04-22 20:38:45 21.1 27 20.4
002F5DB1 2019-04-22 20:04:54 21.1 27 20.4
002F5DB1 2019-04-22 19:31:03 21 27 20.4
002F5DB1 2019-04-22 18:57:14 21 27 20.3
002F5DB1 2019-04-22 18:23:24 21.1 27 20.2
002F5DB1 2019-04-22 17:49:33 21.2 27 20.1
002F5DB1 2019-04-22 17:15:45 21.2 27 20
002F5DB1 2019-04-22 16:41:54 21.1 27 19.7
002F5DB1 2019-04-22 16:08:04 21.1 27 19.8
002F5DB1 2019-04-22 15:34:15 21.2 27 19.8
002F5DB1 2019-04-22 15:00:25 21.2 27 19.6
002F5DB1 2019-04-22 14:26:36 21.1 27 19.3
002F5DB1 2019-04-22 13:52:47 21.2 27 19.3
002F5DB1 2019-04-22 13:18:57 21.2 27 19.2
002F5DB1 2019-04-22 12:45:07 21.2 26 19.2
002F5DB1 2019-04-22 12:11:15 21.2 26 19.2
002F5DB1 2019-04-22 11:37:26 21.2 26 19.1
002F5DB1 2019-04-22 11:03:36 21.2 26 19.2
002F5DB1 2019-04-22 10:29:47 21.2 26 19.3
002F5DB1 2019-04-22 09:55:56 21.2 26 19.4
002F5DB1 2019-04-22 09:22:06 21.2 26 19.6
002F5DB1 2019-04-22 08:48:15 21.2 26 19.6
002F5DB1 2019-04-22 08:14:26 21.2 26 17.1
002F5DB1 2019-04-22 07:40:37 21.2 26 17.4
002F5DB1 2019-04-22 07:06:47 21.2 26 17.7
002F5DB1 2019-04-22 06:32:56 21.2 26 17.7
002F5DB1 2019-04-22 05:59:06 21.2 26 17.8
002F5DB1 2019-04-22 05:25:17 21.2 26 17.8
002F5DB1 2019-04-22 04:51:24 21.2 26 18
002F5DB1 2019-04-22 04:17:32 21.2 26 18.1
002F5DB1 2019-04-22 03:43:46 21.2 26 18.3
002F5DB1 2019-04-22 03:09:51 21.3 26 18.3
002F5DB1 2019-04-22 02:36:02 21.3 26 18.1
002F5DB1 2019-04-22 02:02:12 21.3 26 18.3
002F5DB1 2019-04-22 01:28:24 21.4 26 18.8
002F5DB1 2019-04-22 00:54:34 21.4 26 18.8
002F5DB1 2019-04-22 00:20:45 21.4 26 19
002F5DB1 2019-04-21 23:46:56 21.4 26 19.2
002F5DB1 2019-04-21 23:13:05 21.4 26 19.4
002F5DB1 2019-04-21 22:39:14 21.4 26 19.4
002F5DB1 2019-04-21 22:05:24 21.4 26 19.2
002F5DB1 2019-04-21 21:31:33 21.4 26 19.4
002F5DB1 2019-04-21 20:57:43 21.4 26 19.6
002F5DB1 2019-04-21 20:23:53 21.4 26 19.4
002F5DB1 2019-04-21 19:50:05 21.4 26 19.5
002F5DB1 2019-04-21 19:16:15 21.4 26 19.2
002F5DB1 2019-04-21 18:42:25 21.4 26 19.3
002F5DB1 2019-04-21 18:08:35 21.3 26 19.3
002F5DB1 2019-04-21 17:34:45 21.2 26 19.3
002F5DB1 2019-04-21 17:00:54 21.2 26 19.1
002F5DB1 2019-04-21 16:27:07 21.2 26 19.1
002F5DB1 2019-04-21 15:53:11 21.2 26 19.2
002F5DB1 2019-04-21 15:19:22 21.2 26 19.3
002F5DB1 2019-04-21 14:45:34 21.2 26 19.3
002F5DB1 2019-04-21 14:11:44 21.2 26 19.3
002F5DB1 2019-04-21 13:37:55 21.2 26 19.1
002F5DB1 2019-04-21 13:04:06 21.1 26 19.2
002F5DB1 2019-04-21 12:30:14 21.1 26 19.2
002F5DB1 2019-04-21 11:56:25 21.1 26 19.1
002F5DB1 2019-04-21 11:22:35 21.1 26 18.6
002F5DB1 2019-04-21 10:48:46 21 26 18.5
002F5DB1 2019-04-21 10:15:00 21.1 26 18.3
002F5DB1 2019-04-21 09:41:07 21.1 26 18.2
002F5DB1 2019-04-21 09:07:16 21.1 26 17.6
002F5DB1 2019-04-21 08:33:28 21.1 25 17.4
002F5DB1 2019-04-21 07:59:39 21.1 25 17.6
002F5DB1 2019-04-21 07:25:50 21.2 25 17.6
002F5DB1 2019-04-21 06:51:59 21.2 25 17
002F5DB1 2019-04-21 06:18:13 21.2 25 17.1
002F5DB1 2019-04-21 05:44:22 21.2 25 17.2
002F5DB1 2019-04-21 05:10:33 21.2 25 17.3
002F5DB1 2019-04-21 04:36:42 21.2 25 17.4
002F5DB1 2019-04-21 04:02:53 21.2 25 17.4
002F5DB1 2019-04-21 03:29:00 21.2 25 17.3
002F5DB1 2019-04-21 02:55:09 21.2 25 17.7
002F5DB1 2019-04-21 02:21:19 21.2 25 17.7
002F5DB1 2019-04-21 01:47:29 21.2 25 17.4
002F5DB1 2019-04-21 01:13:40 21.2 25 17.3
002F5DB1 2019-04-21 00:39:51 21.2 25 17.1
002F5DB1 2019-04-21 00:06:01 21.2 25 17.3
002F5DB1 2019-04-20 23:32:11 21.2 25 17.7
002F5DB1 2019-04-20 22:58:20 21.2 25 17.9
002F5DB1 2019-04-20 22:24:31 21.2 25 18.1
002F5DB1 2019-04-20 21:50:41 21.2 25 18.1
002F5DB1 2019-04-20 21:16:54 21.2 25 18.2
002F5DB1 2019-04-20 20:43:02 21.2 25 18.6
002F5DB1 2019-04-20 20:09:17 21.2 25 18.9
002F5DB1 2019-04-20 19:35:26 21.2 24 18.9
002F5DB1 2019-04-20 19:01:35 21.2 24 18.9
002F5DB1 2019-04-20 18:27:45 21.2 24 19.1
002F5DB1 2019-04-20 17:53:54 21.2 24 19.1
002F5DB1 2019-04-20 17:20:04 21.2 24 19.1
002F5DB1 2019-04-20 16:46:14 21.2 24 19.2
002F5DB1 2019-04-20 16:12:24 21.2 24 19.3
002F5DB1 2019-04-20 15:38:37 21.2 24 19.2
002F5DB1 2019-04-20 15:04:46 21.2 24 19.4
002F5DB1 2019-04-20 14:30:57 21.2 24 19.2
002F5DB1 2019-04-20 13:57:07 21.2 24 19.4
002F5DB1 2019-04-20 13:23:18 21.2 24 19.3
002F5DB1 2019-04-20 12:49:28 21.2 24 19.3
002F5DB1 2019-04-20 12:15:40 21.2 24 19.4
002F5DB1 2019-04-20 11:41:50 21.1 24 19.4
002F5DB1 2019-04-20 11:07:59 21 24 19.2
002F5DB1 2019-04-20 10:34:09 21.1 24 19.5
002F5DB1 2019-04-20 10:00:19 21 24 19.5
002F5DB1 2019-04-20 09:26:30 21 24 19.5
002F5DB1 2019-04-20 08:52:39 21 24 19.3
002F5DB1 2019-04-20 08:18:48 21 24 19.4
002F5DB1 2019-04-20 07:44:56 21 24 19.2
002F5DB1 2019-04-20 07:11:05 21 24 19.5
002F5DB1 2019-04-20 06:37:13 21 24 19.5
002F5DB1 2019-04-20 06:03:23 21 24 19.4
002F5DB1 2019-04-20 05:29:30 21 24 19.5
002F5DB1 2019-04-20 04:55:39 21 24 19.7
002F5DB1 2019-04-20 04:21:45 21 24 19.6
002F5DB1 2019-04-20 03:47:53 21 24 19.4
002F5DB1 2019-04-20 03:14:02 21 23 19.2
002F5DB1 2019-04-20 02:40:11 21 23 20.9
002F5DB1 2019-04-20 02:06:19 21 23 20.9
002F5DB1 2019-04-20 01:32:27 21 24 21
002F5DB1 2019-04-20 00:58:36 21 24 21
002F5DB1 2019-04-20 00:24:44 21 24 21.4
002F5DB1 2019-04-19 23:50:52 21 24 21.5
002F5DB1 2019-04-19 23:17:01 21 24 21.7
002F5DB1 2019-04-19 22:43:10 21 24 21.6
002F5DB1 2019-04-19 22:09:18 21 24 21.7
002F5DB1 2019-04-19 21:35:27 21 24 21.8
002F5DB1 2019-04-19 21:01:37 21 24 22
002F5DB1 2019-04-19 20:27:46 21 24 21.9
002F5DB1 2019-04-19 19:53:56 21 24 21.9
002F5DB1 2019-04-19 19:20:04 21 24 22
002F5DB1 2019-04-19 18:46:14 20.9 24 21.9
002F5DB1 2019-04-19 18:12:23 21 24 21.9
002F5DB1 2019-04-19 17:38:32 20.9 24 22.1
002F5DB1 2019-04-19 17:04:42 21 24 22.1
002F5DB1 2019-04-19 16:30:52 21 24 22.1
002F5DB1 2019-04-19 15:57:04 21 24 22
002F5DB1 2019-04-19 15:23:12 21 24 22
002F5DB1 2019-04-19 14:49:20 21 24 21.8
002F5DB1 2019-04-19 14:15:29 21 24 22.1
002F5DB1 2019-04-19 13:41:38 21 25 22.3
002F5DB1 2019-04-19 13:07:46 21 25 22.5
002F5DB1 2019-04-19 12:33:55 21 25 21.5
002F5DB1 2019-04-19 12:00:04 21 25 21.5
002F5DB1 2019-04-19 11:26:14 21 25 21.7
002F5DB1 2019-04-19 10:52:24 21 25 21.5
002F5DB1 2019-04-19 10:18:33 21.1 25 21.3
002F5DB1 2019-04-19 09:44:43 21.2 25 21.1
002F5DB1 2019-04-19 09:10:52 21.2 26 21
002F5DB1 2019-04-19 08:37:01 21.2 26 21
002F5DB1 2019-04-19 08:03:10 21.2 26 20.8
002F5DB1 2019-04-19 07:29:20 21.2 26 20.7
002F5DB1 2019-04-19 06:55:30 21.2 26 20.6
002F5DB1 2019-04-19 06:21:37 21.2 26 20.4
002F5DB1 2019-04-19 05:47:47 21.2 26 20.2
002F5DB1 2019-04-19 05:13:57 21.2 26 20.1
002F5DB1 2019-04-19 04:40:07 21.3 26 20.1
002F5DB1 2019-04-19 04:06:17 21.2 26 21.4
002F5DB1 2019-04-19 03:32:27 21.2 26 22.3
002F5DB1 2019-04-19 02:58:38 21.3 26 23
002F5DB1 2019-04-19 02:24:48 21.3 26 23.7
002F5DB1 2019-04-19 01:50:58 21.3 26 23.8
002F5DB1 2019-04-19 01:17:08 21.3 26 23.9
002F5DB1 2019-04-19 00:43:17 21.4 26 24.1
002F5DB1 2019-04-19 00:09:26 21.4 26 24.1
002F5DB1 2019-04-18 23:35:35 21.4 26 24.2
002F5DB1 2019-04-18 23:01:45 21.3 26 24.1
002F5DB1 2019-04-18 22:27:54 21.4 26 24.2
002F5DB1 2019-04-18 21:54:02 21.4 26 24.8
002F5DB1 2019-04-18 21:20:11 21.4 26 24.8
002F5DB1 2019-04-18 20:46:22 21.3 26 24.9
002F5DB1 2019-04-18 20:12:30 21.4 26 24.9
002F5DB1 2019-04-18 19:38:40 21.4 26 25
002F5DB1 2019-04-18 19:04:50 21.4 26 25.1
002F5DB1 2019-04-18 18:30:58 21.4 26 25.2
002F5DB1 2019-04-18 17:57:08 21.6 27 25.4
002F5DB1 2019-04-18 17:23:19 21.6 27 25.5
002F5DB1 2019-04-18 16:49:30 21.6 27 25.6
002F5DB1 2019-04-18 16:15:39 21.6 27 25.6
002F5DB1 2019-04-18 15:41:48 21.6 27 25.7
002F5DB1 2019-04-18 15:07:57 21.7 27 25.8
002F5DB1 2019-04-18 14:34:07 21.8 27 25.9
002F5DB1 2019-04-18 14:00:18 21.8 27 25.5
002F5DB1 2019-04-18 13:26:26 22 27 25.2
002F5DB1 2019-04-18 12:52:37 22 27 24.8
002F5DB1 2019-04-18 12:18:47 22.3 25 24.4
002F5DB1 2019-04-18 11:44:56 22.5 20 24.4
002F5DB1 2019-04-18 11:11:05 22.4 21 24.4
002F5DB1 2019-04-18 10:37:15 22.2 22 24.3
002F5DB1 2019-04-18 10:03:26 22.2 22 24.3
002F5DB1 2019-04-18 09:29:37 22.2 21 24.3
002F5DB1 2019-04-18 08:55:48 22.2 21 24.3
002F5DB1 2019-04-18 08:21:59 22.2 21 24.3
002F5DB1 2019-04-18 07:48:10 22.2 21 23.7
002F5DB1 2019-04-18 07:14:20 22.2 21 23.9
002F5DB1 2019-04-18 06:40:32 22.2 21 23.8
002F5DB1 2019-04-18 06:06:44 22.2 22 24.4
002F5DB1 2019-04-18 05:32:55 22.2 22 24.9
002F5DB1 2019-04-18 04:59:06 22.2 22 24.8
002F5DB1 2019-04-18 04:25:17 22.3 22 24.8
002F5DB1 2019-04-18 03:51:26 22.3 22 24.6
002F5DB1 2019-04-18 03:17:37 22.4 22 24.5
002F5DB1 2019-04-18 02:43:48 22.5 22 24.4
002F5DB1 2019-04-18 02:10:00 22.5 22 24.5
002F5DB1 2019-04-18 01:36:12 22.5 22 24.5
002F5DB1 2019-04-18 01:02:24 22.5 22 24.5
002F5DB1 2019-04-18 00:28:32 22.5 22 24.4
002F5DB1 2019-04-17 23:54:41 22.5 22 24.3
002F5DB1 2019-04-17 23:20:51 22.5 22 24.3
002F5DB1 2019-04-17 22:47:01 22.6 22 24.2
002F5DB1 2019-04-17 22:13:11 22.7 22 24.1
002F5DB1 2019-04-17 21:39:21 22.7 22 24.1
002F5DB1 2019-04-17 21:05:30 22.7 22 24.1
002F5DB1 2019-04-17 20:31:39 22.9 22 24.1
002F5DB1 2019-04-17 19:57:48 22.9 22 24.1
002F5DB1 2019-04-17 19:23:57 22.9 22 24.6
002F5DB1 2019-04-17 18:50:05 22.9 22 24.7
002F5DB1 2019-04-17 18:16:12 22.9 21 24.6
002F5DB1 2019-04-17 17:42:20 23.1 21 24.6
002F5DB1 2019-04-17 17:08:28 23.1 21 24.4
002F5DB1 2019-04-17 16:34:36 23.1 22 24.9
002F5DB1 2019-04-17 16:00:44 23.1 22 24.4
002F5DB1 2019-04-17 15:26:53 23.1 22 23.9
002F5DB1 2019-04-17 14:53:03 23.1 23 23.8
002F5DB1 2019-04-17 14:19:12 22.9 23 23.9
002F5DB1 2019-04-17 13:45:22 22.9 23 23.9
002F5DB1 2019-04-17 13:11:30 22.7 23 23.9
002F5DB1 2019-04-17 12:37:42 22.7 23 24.1
002F5DB1 2019-04-17 12:03:51 22.5 22 24
002F5DB1 2019-04-17 11:30:01 22.5 22 24.1
002F5DB1 2019-04-17 10:56:11 22.3 22 24.1
002F5DB1 2019-04-17 10:22:20 22.2 21 24.1
002F5DB1 2019-04-17 09:48:29 22.2 21 24.1
002F5DB1 2019-04-17 09:14:38 22.2 21 24.1
002F5DB1 2019-04-17 08:40:49 22.2 21 24.1
002F5DB1 2019-04-17 08:06:58 22.2 20 24.6
002F5DB1 2019-04-17 07:33:08 22.2 19 24.7
002F5DB1 2019-04-17 06:59:17 22.2 19 24.6
002F5DB1 2019-04-17 06:25:27 22.2 19 24.6
002F5DB1 2019-04-17 05:51:35 22.2 19 24.5
002F5DB1 2019-04-17 05:17:44 22.2 20 23.9
002F5DB1 2019-04-17 04:43:53 22.2 20 23.9
002F5DB1 2019-04-17 04:10:04 22.2 20 24
002F5DB1 2019-04-17 03:36:14 22.2 20 23.9
002F5DB1 2019-04-17 03:02:24 22.2 20 23.9
002F5DB1 2019-04-17 02:28:34 22.2 20 23.2
002F5DB1 2019-04-17 01:54:45 22.2 20 23.2
002F5DB1 2019-04-17 01:20:55 22.2 20 23.3
002F5DB1 2019-04-17 00:47:05 22.2 20 23.4
002F5DB1 2019-04-17 00:13:14 22.3 20 23.3
002F5DB1 2019-04-16 23:39:24 22.4 20 23.3
002F5DB1 2019-04-16 23:05:35 22.3 20 23.3
002F5DB1 2019-04-16 22:31:46 22.5 20 23.2
002F5DB1 2019-04-16 21:57:56 22.5 20 23.2
002F5DB1 2019-04-16 21:24:05 22.5 20 23.3
002F5DB1 2019-04-16 20:50:14 22.5 19 23.4
002F5DB1 2019-04-16 20:16:23 22.5 19 23.6
002F5DB1 2019-04-16 19:42:33 22.6 19 23.7
002F5DB1 2019-04-16 19:08:43 22.5 19 23.6
002F5DB1 2019-04-16 18:34:52 22.6 18 24.2
002F5DB1 2019-04-16 18:01:01 22.7 18 23.7
002F5DB1 2019-04-16 17:27:11 22.9 18 23.6
002F5DB1 2019-04-16 16:53:22 22.9 18 23.7
002F5DB1 2019-04-16 16:19:33 22.9 19 23.9
002F5DB1 2019-04-16 15:45:44 22.9 18 24.1
002F5DB1 2019-04-16 15:11:56 22.9 19 24.3
002F5DB1 2019-04-16 14:38:06 22.9 19 24.4
002F5DB1 2019-04-16 14:04:17 22.7 18 24.3
002F5DB1 2019-04-16 13:30:26 22.7 18 24.3
002F5DB1 2019-04-16 12:56:36 22.5 18 24.4
002F5DB1 2019-04-16 12:22:46 22.5 18 24.5
002F5DB1 2019-04-16 11:48:56 22.4 18 24.7
002F5DB1 2019-04-16 11:15:07 22.2 18 25
002F5DB1 2019-04-16 10:41:18 22.2 18 25
002F5DB1 2019-04-16 10:07:29 22.2 18 25.1
002F5DB1 2019-04-16 09:33:41 22.2 18 25.1
002F5DB1 2019-04-16 08:59:51 22.1 18 25.1
002F5DB1 2019-04-16 08:26:01 22.2 18 25.1
002F5DB1 2019-04-16 07:52:13 22.2 17 25.1
002F5DB1 2019-04-16 07:18:23 22.1 17 25
002F5DB1 2019-04-16 06:44:34 22.1 17 24.9
002F5DB1 2019-04-16 06:10:44 22.1 17 24.7
002F5DB1 2019-04-16 05:36:55 22.1 17 24.7
002F5DB1 2019-04-16 05:03:05 22 17 24.7
002F5DB1 2019-04-16 04:29:15 22.1 17 24.1
002F5DB1 2019-04-16 03:55:25 22.2 17 24
002F5DB1 2019-04-16 03:21:36 22.2 17 24
002F5DB1 2019-04-16 02:47:47 22.2 17 24.1
002F5DB1 2019-04-16 02:13:58 22.2 17 23.9
002F5DB1 2019-04-16 01:40:10 22.2 17 23.6
002F5DB1 2019-04-16 01:06:21 22.2 17 23.4
002F5DB1 2019-04-16 00:32:32 22.2 17 23.4
002F5DB1 2019-04-15 23:58:43 22.2 17 23.4
002F5DB1 2019-04-15 23:24:53 22.2 17 23.4
002F5DB1 2019-04-15 22:51:04 22.2 17 23.3
002F5DB1 2019-04-15 22:17:13 22.2 17 23.3
002F5DB1 2019-04-15 21:43:24 22.5 17 23.1
002F5DB1 2019-04-15 21:09:35 22.5 16 22.4
002F5DB1 2019-04-15 20:35:45 22.5 16 22.5
002F5DB1 2019-04-15 20:01:55 22.5 16 22.8
002F5DB1 2019-04-15 19:28:06 22.5 16 22.8
002F5DB1 2019-04-15 18:54:16 22.5 15 23.4
002F5DB1 2019-04-15 18:20:25 22.7 15 23.4
002F5DB1 2019-04-15 17:46:35 22.7 15 23.5
002F5DB1 2019-04-15 17:12:43 22.9 15 24.1
002F5DB1 2019-04-15 16:38:53 22.9 15 24.1
002F5DB1 2019-04-15 16:05:03 22.9 15 24.1
002F5DB1 2019-04-15 15:31:13 22.9 15 24.2
002F5DB1 2019-04-15 14:57:23 22.9 16 24.3
002F5DB1 2019-04-15 14:23:32 22.7 16 24.3
002F5DB1 2019-04-15 13:49:41 22.7 16 24.4
002F5DB1 2019-04-15 13:15:50 22.7 16 24.4
002F5DB1 2019-04-15 12:42:00 22.5 16 24.3
002F5DB1 2019-04-15 12:08:10 22.5 16 24.4
002F5DB1 2019-04-15 11:34:19 22.3 16 24.4
002F5DB1 2019-04-15 11:00:30 22.2 16 24.5
002F5DB1 2019-04-15 10:26:39 22.2 17 24.4
002F5DB1 2019-04-15 09:52:48 22.1 17 24.4
002F5DB1 2019-04-15 09:18:59 22 17 24.4
002F5DB1 2019-04-15 08:45:09 22 17 24.4
002F5DB1 2019-04-15 08:11:19 22 17 24.4
002F5DB1 2019-04-15 07:37:29 22 17 24.4
002F5DB1 2019-04-15 07:03:38 21.9 17 24.4
002F5DB1 2019-04-15 06:29:48 21.8 17 24.3
002F5DB1 2019-04-15 05:55:57 21.8 17 24.2
002F5DB1 2019-04-15 05:22:08 21.8 17 24.8
002F5DB1 2019-04-15 04:48:17 21.8 17 24.2
002F5DB1 2019-04-15 04:14:28 21.8 17 24.3
002F5DB1 2019-04-15 03:40:38 21.8 17 24.3
002F5DB1 2019-04-15 03:06:47 21.8 17 23.6
002F5DB1 2019-04-15 02:32:59 21.8 17 23.6
002F5DB1 2019-04-15 01:59:09 21.8 18 24.2
002F5DB1 2019-04-15 01:25:19 21.8 18 24.1
002F5DB1 2019-04-15 00:51:28 21.8 18 24
002F5DB1 2019-04-15 00:17:39 21.8 18 24
002F5DB1 2019-04-14 23:43:48 21.8 18 23.9
002F5DB1 2019-04-14 23:09:58 21.8 18 24
002F5DB1 2019-04-14 22:36:09 21.8 18 24.1
002F5DB1 2019-04-14 22:02:18 22 18 24
002F5DB1 2019-04-14 21:28:28 22 18 24.6
002F5DB1 2019-04-14 20:54:36 22 18 24.6
002F5DB1 2019-04-14 20:20:45 22 18 24.6
002F5DB1 2019-04-14 19:46:54 22.1 18 24.7
002F5DB1 2019-04-14 19:13:04 22.1 18 24.7
002F5DB1 2019-04-14 18:39:13 22 18 24.7
002F5DB1 2019-04-14 18:05:22 22 18 24.6
002F5DB1 2019-04-14 17:31:31 22 18 24.6
002F5DB1 2019-04-14 16:57:40 22 18 24.5
002F5DB1 2019-04-14 16:23:48 22 18 24.5
002F5DB1 2019-04-14 15:49:57 22 18 24.3
002F5DB1 2019-04-14 15:16:06 21.9 18 23.7
002F5DB1 2019-04-14 14:42:17 22 18 23.8
002F5DB1 2019-04-14 14:08:26 22 18 23.7
002F5DB1 2019-04-14 13:34:36 22 18 23.6
002F5DB1 2019-04-14 13:00:46 22 18 23.7
002F5DB1 2019-04-14 12:26:57 22 18 23.7
002F5DB1 2019-04-14 11:53:06 22 18 23
002F5DB1 2019-04-14 11:19:16 22 18 23
002F5DB1 2019-04-14 10:45:26 22 18 23.2
002F5DB1 2019-04-14 10:11:37 22 18 23.2
002F5DB1 2019-04-14 09:37:46 21.9 18 23.2
002F5DB1 2019-04-14 09:03:56 21.9 18 23.2
002F5DB1 2019-04-14 08:30:05 21.9 18 23.1
002F5DB1 2019-04-14 07:56:14 21.9 18 23.1
002F5DB1 2019-04-14 07:22:23 21.8 18 22.4
002F5DB1 2019-04-14 06:48:32 21.9 18 22.2
002F5DB1 2019-04-14 06:14:42 21.9 18 22.3
002F5DB1 2019-04-14 05:40:51 21.9 18 22.2
002F5DB1 2019-04-14 05:40:51 21.9 18 22.2
002F5DB1 2019-04-14 05:07:01 21.9 18 22.2
002F5DB1 2019-04-14 04:33:11 21.9 18 22.2
002F5DB1 2019-04-14 03:59:21 22 18 22.2
002F5DB1 2019-04-14 03:25:31 22 18 22.2
002F5DB1 2019-04-14 02:51:41 22 18 22.3
002F5DB1 2019-04-14 02:17:50 22 18 22.4
002F5DB1 2019-04-14 01:44:00 22 18 22.6
002F5DB1 2019-04-14 01:10:09 22 18 22.8
002F5DB1 2019-04-14 00:36:19 22 18 22.7
002F5DB1 2019-04-14 00:02:28 22 18 22.7
002F5DB1 2019-04-13 23:28:36 22 18 22.8
002F5DB1 2019-04-13 22:54:44 22 18 22.8
002F5DB1 2019-04-13 22:20:53 22 18 23.5
002F5DB1 2019-04-13 21:47:01 22 18 23.6
002F5DB1 2019-04-13 21:13:09 22 17 23.5
002F5DB1 2019-04-13 20:39:17 22.2 17 23.4
002F5DB1 2019-04-13 20:05:27 22.2 17 23.3
002F5DB1 2019-04-13 19:31:35 22.2 18 23.3
002F5DB1 2019-04-13 18:57:44 22.2 18 23.3
002F5DB1 2019-04-13 18:23:52 22.2 18 23.3
002F5DB1 2019-04-13 17:50:00 22.2 18 23.3
002F5DB1 2019-04-13 17:16:08 22.2 18 23.4
002F5DB1 2019-04-13 16:42:16 22.2 18 23.5
002F5DB1 2019-04-13 16:08:23 22.3 18 23.4
002F5DB1 2019-04-13 15:34:30 22.3 18 23.4
002F5DB1 2019-04-13 15:00:39 22.3 18 23.4
002F5DB1 2019-04-13 14:26:48 22.5 18 23.5
002F5DB1 2019-04-13 13:52:57 22.5 18 23.6
002F5DB1 2019-04-13 13:19:05 22.5 18 24.2
002F5DB1 2019-04-13 12:45:13 22.5 18 24.1
002F5DB1 2019-04-13 12:11:22 22.5 18 24
002F5DB1 2019-04-13 11:37:31 22.5 18 23.9
002F5DB1 2019-04-13 11:03:40 22.5 18 23.9
002F5DB1 2019-04-13 10:29:50 22.5 18 23.9
002F5DB1 2019-04-13 09:55:59 22.3 18 23.9
002F5DB1 2019-04-13 09:22:08 22.3 18 23.9
002F5DB1 2019-04-13 08:48:17 22.4 18 23.9
002F5DB1 2019-04-13 08:14:26 22.3 18 23.4
002F5DB1 2019-04-13 07:40:35 22.3 17 23.4
002F5DB1 2019-04-13 07:06:44 22.3 17 23.5
002F5DB1 2019-04-13 06:32:54 22.3 17 23.5
002F5DB1 2019-04-13 05:59:04 22.3 17 23.6
002F5DB1 2019-04-13 05:25:13 22.4 17 23.6
002F5DB1 2019-04-13 04:51:23 22.4 17 23.6
002F5DB1 2019-04-13 04:17:32 22.4 17 24.2
002F5DB1 2019-04-13 03:43:40 22.5 17 24.1
002F5DB1 2019-04-13 03:09:48 22.5 18 24
002F5DB1 2019-04-13 02:35:57 22.5 18 24.1
002F5DB1 2019-04-13 02:02:08 22.5 18 24.2
002F5DB1 2019-04-13 01:28:17 22.5 18 24.3
002F5DB1 2019-04-13 00:54:26 22.5 18 24.3
002F5DB1 2019-04-13 00:20:35 22.5 18 24.3
002F5DB1 2019-04-12 23:46:44 22.6 18 24.4
002F5DB1 2019-04-12 23:12:52 22.7 18 23.7
002F5DB1 2019-04-12 22:39:02 22.7 18 23.9
002F5DB1 2019-04-12 22:05:10 22.7 18 24
002F5DB1 2019-04-12 21:31:19 22.7 19 24.1
002F5DB1 2019-04-12 20:57:28 22.9 19 24.2
002F5DB1 2019-04-12 20:23:36 22.8 18 24.2
002F5DB1 2019-04-12 19:49:44 22.9 18 24.4
002F5DB1 2019-04-12 19:15:51 22.9 18 24.5
002F5DB1 2019-04-12 18:42:00 22.9 17 24.6
002F5DB1 2019-04-12 18:08:08 23.1 17 24.6
002F5DB1 2019-04-12 17:34:15 23.1 17 24.6
002F5DB1 2019-04-12 17:00:23 23.1 17 24.6
002F5DB1 2019-04-12 16:26:32 23.2 18 25
002F5DB1 2019-04-12 15:52:41 23.1 18 25.4
002F5DB1 2019-04-12 15:18:47 23.1 19 25.6
002F5DB1 2019-04-12 14:44:54 22.9 18 26.4
002F5DB1 2019-04-12 14:11:01 22.5 19 22
002F5DB1 2019-04-12 13:37:08 21.8 20 22.5
002F5DB1 2019-04-12 13:03:15 20.7 25 0